KB7YYZ Weather Reports


time (UTC)temp
F
wind
direction
speed
knots
gust
knots
rain 1hr
in
rain 24hr
in
rain mn
in
humidity
%
barometer
mb
20260503195038 85 90 1.7 1.7 0.00 0.00 0.00 26 1005.7
20260503194031 85 161 1.7 1.7 0.00 0.00 0.00 27 1005.9
20260503193046 85 210 1.7 1.7 0.00 0.00 0.00 27 1006.0
20260503192025 84 217 1.7 2.6 0.00 0.00 0.00 27 1006.1
20260503191109 84 172 1.7 2.6 0.00 0.00 0.00 28 1006.1
20260503190037 84 195 2.6 2.6 0.00 0.00 0.00 28 1006.3
20260503185028 84 167 2.6 2.6 0.00 0.00 0.00 28 1006.5
20260503184033 83 173 2.6 2.6 0.00 0.00 0.00 28 1006.7
20260503183020 83 232 2.6 2.6 0.00 0.00 0.00 29 1006.8
20260503182025 83 168 2.6 2.6 0.00 0.00 0.00 29 1006.9
20260503181027 83 205 2.6 2.6 0.00 0.00 0.00 29 1007.1
20260503180030 83 199 1.7 2.6 0.00 0.00 0.00 29 1007.3
20260503175023 83 197 1.7 2.6 0.00 0.00 0.00 29 1007.4
20260503174021 82 190 2.6 2.6 0.00 0.00 0.00 29 1007.5
20260503173039 82 197 2.6 2.6 0.00 0.00 0.00 29 1007.5
20260503172028 82 216 1.7 2.6 0.00 0.00 0.00 30 1007.7
20260503171022 82 190 2.6 2.6 0.00 0.00 0.00 30 1007.7
20260503131029 75 177 0.9 0.9 0.00 0.00 0.00 34 1007.0
20260503081030 79 204 1.7 1.7 0.00 0.00 0.00 29 1006.8
20260503072027 80 203 1.7 1.7 0.00 0.00 0.00 28 1006.9
20260503071024 80 190 1.7 1.7 0.00 0.00 0.00 27 1007.0
20260503055025 82 172 0.9 0.9 0.00 0.00 0.00 24 1005.9
20260503054022 82 184 0.9 1.7 0.00 0.00 0.00 25 1005.9
20260503053028 83 133 0.9 1.7 0.00 0.00 0.00 25 1005.9
20260503052033 82 164 0.9 0.9 0.00 0.00 0.00 25 1006.0
20260503051039 83 41 1.7 1.7 0.00 0.00 0.00 25 1005.9
20260503050042 83 144 1.7 1.7 0.00 0.00 0.00 24
20260503045039 83 59 1.7 1.7 0.00 0.00 0.00 23 1005.7
20260503044024 83 8 0.9 0.9 0.00 0.00 0.00 23
20260503043030 83 184 0.9 0.9 0.00 0.00 0.00 23 1005.5
20260503042057 83 177 0.9 0.9 0.00 0.00 0.00 22 1005.4
20260503041032 84 129 0.0 0.9 0.00 0.00 0.00 22 1005.3
20260503040030 84 161 0.0 0.9 0.00 0.00 0.00 22 1005.1
20260503035021 84 103 0.9 0.9 0.00 0.00 0.00 22 1005.1
20260503034028 84 55 0.9 0.9 0.00 0.00 0.00 22 1005.1
20260503033024 84 100 0.9 0.9 0.00 0.00 0.00 21 1005.1
20260503032022 85 100 0.9 0.9 0.00 0.00 0.00 21 1005.1
20260503031019 85 22 0.9 0.9 0.00 0.00 0.00 21 1005.0
20260503030045 85 66 0.9 1.7 0.00 0.00 0.00 20 1004.9
20260503025044 86 124 0.9 0.9 0.00 0.00 0.00 20 1004.8
20260503024040 86 73 0.0 0.9 0.00 0.00 0.00 19 1004.6
20260503023037 86 52 0.0 0.9 0.00 0.00 0.00 19 1004.6
20260503022027 87 56 0.0 0.0 0.00 0.00 0.00 19 1004.6
20260503021042 87 35 0.0 0.9 0.00 0.00 0.00 17 1004.6
20260503020021 87 82 0.9 0.9 0.00 0.00 0.00 18 1004.6
20260503015030 88 54 0.0 0.9 0.00 0.00 0.00 16 1004.8
20260503014053 88 149 0.0 0.9 0.00 0.00 0.00 16 1004.8
20260503013023 88 60 0.0 0.9 0.00 0.00 0.00 16 1004.8
20260503012040 88 315 0.9 0.9 0.00 0.00 0.00 16 1004.8
20260503011038 89 237 0.9 0.9 0.00 0.00 0.00 16 1004.9
20260503010024 89 214 0.9 0.9 0.00 0.00 0.00 16 1004.9
20260503005035 89 203 0.0 0.9 0.00 0.00 0.00 16 1004.9
20260503004022 89 314 0.0 0.9 0.00 0.00 0.00 16 1004.8
20260503003030 89 199 0.0 0.9 0.00 0.00 0.00 15 1004.8
20260503002029 89 162 0.9 0.9 0.00 0.00 0.00 15 1004.8
20260503001041 90 192 0.9 0.9 0.00 0.00 0.00 15 1004.9
20260503000029 90 212 1.7 1.7 0.00 0.00 0.00 15 1004.8
20260502235103 90 14 0.9 0.9 0.00 0.00 0.00 14 1004.8
20260502234022 90 223 2.6 2.6 0.00 0.00 0.00 14 1004.9
20260502233047 90 229 1.7 1.7 0.00 0.00 0.00 13 1004.9
20260502232024 91 207 1.7 1.7 0.00 0.00 0.00 13 1005.0
20260502231024 90 235 0.9 0.9 0.00 0.00 0.00 13 1005.2
20260502230031 90 338 1.7 1.7 0.00 0.00 0.00 11 1005.3
20260502225029 91 221 1.7 1.7 0.00 0.00 0.00 13 1005.3
20260502224044 90 126 0.9 0.9 0.00 0.00 0.00 12 1005.3
20260502223021 90 303 0.9 0.9 0.00 0.00 0.00 12 1005.4
20260502222022 90 162 0.9 1.7 0.00 0.00 0.00 13 1005.5
20260502221030 90 211 1.7 1.7 0.00 0.00 0.00 13 1005.7
20260502220027 90 249 1.7 1.7 0.00 0.00 0.00 13 1005.8
20260502215035 90 87 1.7 1.7 0.00 0.00 0.00 12 1006.1
20260502214039 90 186 1.7 1.7 0.00 0.00 0.00 13 1006.3
20260502213034 90 250 1.7 1.7 0.00 0.00 0.00 13 1006.4
20260502212025 90 140 0.9 0.9 0.00 0.00 0.00 14 1006.4
20260502211028 90 272 1.7 1.7 0.00 0.00 0.00 15 1006.4
20260502210031 89 360 0.9 0.9 0.00 0.00 0.00 15 1006.7
20260502205051 89 133 0.9 1.7 0.00 0.00 0.00 16 1006.9
20260502204030 90 98 1.7 1.7 0.00 0.00 0.00 16 1007.0
20260502203022 90 230 1.7 1.7 0.00 0.00 0.00 18 1007.0
20260502202023 89 217 0.9 1.7 0.00 0.00 0.00 16 1007.3
20260502201022 90 58 0.9 0.9 0.00 0.00 0.00 16 1007.4
20260502200019 89 252 1.7 1.7 0.00 0.00 0.00 17 1007.5